Time,TemperatureF,DewpointF,PressureIn,WindDirection,WindDirectionDegrees,WindSpeedMPH,WindSpeedGustMPH,Humidity,HourlyPrecipIn,Conditions,Clouds,dailyrainin,SoftwareType,DateUTC
2013-07-02 00:11:00,60.9,60.0,30.04,SSE,153,0.0,0.0,97,0.00,,,0.00,weatherlink.com 1.10,2013-07-02 04:11:00,
2013-07-02 00:26:00,60.9,60.0,30.04,SSE,153,0.0,0.0,97,0.00,,,0.00,weatherlink.com 1.10,2013-07-02 04:26:00,
2013-07-02 00:41:00,60.7,60.0,30.04,SSE,153,0.0,0.0,97,0.00,,,0.00,weatherlink.com 1.10,2013-07-02 04:41:00,
2013-07-02 00:56:00,60.5,60.0,30.04,SSE,154,0.0,0.0,97,0.00,,,0.00,weatherlink.com 1.10,2013-07-02 04:56:00,
2013-07-02 01:11:00,60.5,60.0,30.05,SSE,154,0.0,0.0,97,0.00,,,0.00,weatherlink.com 1.10,2013-07-02 05:11:00,
2013-07-02 01:27:00,60.6,60.0,30.05,SSE,153,0.0,0.0,98,0.00,,,0.00,weatherlink.com 1.10,2013-07-02 05:27:00,
2013-07-02 01:42:00,60.9,60.0,30.05,SSE,154,0.0,0.0,98,0.00,,,0.00,weatherlink.com 1.10,2013-07-02 05:42:00,
2013-07-02 01:57:00,61.1,61.0,30.05,SSE,153,0.0,0.0,98,0.00,,,0.00,weatherlink.com 1.10,2013-07-02 05:57:00,
2013-07-02 02:12:00,61.2,61.0,30.05,SSE,155,0.0,0.0,98,0.00,,,0.00,weatherlink.com 1.10,2013-07-02 06:12:00,
2013-07-02 02:27:00,61.4,61.0,30.05,SSE,154,0.0,0.0,98,0.00,,,0.00,weatherlink.com 1.10,2013-07-02 06:27:00,
2013-07-02 02:42:00,61.5,61.0,30.04,SSE,153,0.0,0.0,97,0.00,,,0.00,weatherlink.com 1.10,2013-07-02 06:42:00,
2013-07-02 02:57:00,61.5,61.0,30.04,SSE,153,0.0,0.0,98,0.00,,,0.00,weatherlink.com 1.10,2013-07-02 06:57:00,
2013-07-02 03:12:00,61.7,61.0,30.04,SSE,154,0.0,0.0,98,0.01,,,0.01,weatherlink.com 1.10,2013-07-02 07:12:00,
2013-07-02 03:27:00,61.6,61.0,30.04,SSE,155,0.0,0.0,97,0.01,,,0.01,weatherlink.com 1.10,2013-07-02 07:27:00,
2013-07-02 03:42:00,61.8,61.0,30.04,SSE,153,0.0,0.0,98,0.01,,,0.01,weatherlink.com 1.10,2013-07-02 07:42:00,
2013-07-02 03:57:00,62.0,62.0,30.04,SSE,153,0.0,0.0,98,0.01,,,0.01,weatherlink.com 1.10,2013-07-02 07:57:00,
2013-07-02 04:12:00,62.3,62.0,30.05,SSE,154,0.0,0.0,98,0.02,,,0.03,weatherlink.com 1.10,2013-07-02 08:12:00,
2013-07-02 04:27:00,62.2,62.0,30.05,SSE,155,0.0,0.0,98,0.14,,,0.15,weatherlink.com 1.10,2013-07-02 08:27:00,
2013-07-02 04:42:00,62.0,62.0,30.06,SSE,155,0.0,0.0,98,0.28,,,0.29,weatherlink.com 1.10,2013-07-02 08:42:00,
2013-07-02 04:57:00,61.8,61.0,30.05,SSE,155,0.0,0.0,98,0.44,,,0.45,weatherlink.com 1.10,2013-07-02 08:57:00,
2013-07-02 05:12:00,61.7,61.0,30.05,SSE,154,0.0,0.0,98,0.49,,,0.52,weatherlink.com 1.10,2013-07-02 09:12:00,
2013-07-02 05:27:00,61.6,61.0,30.06,SSE,153,0.0,0.0,98,0.37,,,0.52,weatherlink.com 1.10,2013-07-02 09:27:00,
2013-07-02 05:42:00,61.6,61.0,30.06,SSE,154,0.0,0.0,98,0.24,,,0.53,weatherlink.com 1.10,2013-07-02 09:42:00,
2013-07-02 05:57:00,61.4,61.0,30.06,SSE,154,0.0,0.0,98,0.08,,,0.53,weatherlink.com 1.10,2013-07-02 09:57:00,
2013-07-02 06:12:00,61.3,61.0,30.07,SSE,154,0.0,0.0,98,0.01,,,0.53,weatherlink.com 1.10,2013-07-02 10:12:00,
2013-07-02 06:27:00,61.3,61.0,30.07,SSE,155,0.0,0.0,98,0.01,,,0.53,weatherlink.com 1.10,2013-07-02 10:27:00,
2013-07-02 06:42:00,61.4,61.0,30.08,SSE,155,0.0,0.0,98,0.00,,,0.53,weatherlink.com 1.10,2013-07-02 10:42:00,
2013-07-02 06:57:00,61.5,61.0,30.08,SSE,155,0.0,0.0,98,0.00,,,0.53,weatherlink.com 1.10,2013-07-02 10:57:00,
2013-07-02 07:45:00,62.1,62.0,30.09,SSE,162,0.0,1.0,98,0.00,,,0.53,weatherlink.com 1.10,2013-07-02 11:45:00,
2013-07-02 07:57:00,62.4,62.0,30.10,SSE,162,0.0,1.0,98,0.00,,,0.53,weatherlink.com 1.10,2013-07-02 11:57:00,
2013-07-02 08:12:00,62.6,62.0,30.10,SSE,162,0.0,1.0,98,0.00,,,0.53,weatherlink.com 1.10,2013-07-02 12:12:00,
2013-07-02 08:27:00,62.9,62.0,30.11,SSE,162,0.0,0.0,98,0.00,,,0.53,weatherlink.com 1.10,2013-07-02 12:27:00,
2013-07-02 08:42:00,62.7,62.0,30.11,SSE,162,0.0,0.0,98,0.00,,,0.53,weatherlink.com 1.10,2013-07-02 12:42:00,
2013-07-02 08:57:00,62.7,62.0,30.11,SSE,162,0.0,0.0,98,0.00,,,0.53,weatherlink.com 1.10,2013-07-02 12:57:00,
2013-07-02 09:13:00,62.8,62.0,30.12,SSE,162,0.0,0.0,98,0.00,,,0.53,weatherlink.com 1.10,2013-07-02 13:13:00,
2013-07-02 09:27:00,62.9,62.0,30.13,SSE,162,0.0,0.0,98,0.00,,,0.53,weatherlink.com 1.10,2013-07-02 13:27:00,
2013-07-02 09:42:00,64.0,64.0,30.12,SSE,162,0.0,0.0,98,0.00,,,0.53,weatherlink.com 1.10,2013-07-02 13:42:00,
2013-07-02 09:57:00,65.0,65.0,30.12,NE,56,0.0,2.0,98,0.00,,,0.53,weatherlink.com 1.10,2013-07-02 13:57:00,
2013-07-02 10:12:00,65.9,65.0,30.12,NE,43,0.0,1.0,97,0.00,,,0.53,weatherlink.com 1.10,2013-07-02 14:12:00,
2013-07-02 10:28:00,67.4,66.0,30.13,NNW,327,0.0,1.0,96,0.00,,,0.53,weatherlink.com 1.10,2013-07-02 14:28:00,
2013-07-02 10:43:00,68.2,67.0,30.13,NNW,331,2.0,2.0,95,0.00,,,0.53,weatherlink.com 1.10,2013-07-02 14:43:00,
2013-07-02 10:58:00,68.2,66.0,30.13,North,1,1.0,3.0,93,0.00,,,0.53,weatherlink.com 1.10,2013-07-02 14:58:00,
2013-07-02 11:13:00,68.7,66.0,30.13,North,358,0.0,3.0,91,0.00,,,0.53,weatherlink.com 1.10,2013-07-02 15:13:00,
2013-07-02 11:28:00,69.9,66.0,30.13,WNW,285,1.0,2.0,88,0.00,,,0.53,weatherlink.com 1.10,2013-07-02 15:28:00,
2013-07-02 11:43:00,69.9,64.0,30.14,North,354,1.0,3.0,82,0.00,,,0.53,weatherlink.com 1.10,2013-07-02 15:43:00,
2013-07-02 11:58:00,70.4,67.0,30.13,SSE,156,0.0,1.0,88,0.00,,,0.53,weatherlink.com 1.10,2013-07-02 15:58:00,
2013-07-02 12:13:00,72.0,68.0,30.13,North,349,0.0,2.0,86,0.00,,,0.53,weatherlink.com 1.10,2013-07-02 16:13:00,
2013-07-02 12:28:00,72.6,67.0,30.13,WNW,295,0.0,2.0,83,0.00,,,0.53,weatherlink.com 1.10,2013-07-02 16:28:00,
2013-07-02 12:43:00,72.9,67.0,30.13,North,352,0.0,2.0,81,0.00,,,0.53,weatherlink.com 1.10,2013-07-02 16:43:00,
2013-07-02 12:58:00,73.5,67.0,30.13,ENE,78,1.0,4.0,80,0.00,,,0.53,weatherlink.com 1.10,2013-07-02 16:58:00,
2013-07-02 13:13:00,74.3,67.0,30.13,NW,326,3.0,4.0,78,0.00,,,0.53,weatherlink.com 1.10,2013-07-02 17:13:00,
2013-07-02 13:28:00,75.1,66.0,30.12,NE,56,1.0,4.0,72,0.00,,,0.53,weatherlink.com 1.10,2013-07-02 17:28:00,
2013-07-02 13:43:00,75.2,64.0,30.13,North,8,2.0,6.0,69,0.00,,,0.53,weatherlink.com 1.10,2013-07-02 17:43:00,
2013-07-02 13:58:00,75.8,67.0,30.12,North,1,2.0,5.0,73,0.00,,,0.53,weatherlink.com 1.10,2013-07-02 17:58:00,
2013-07-02 14:13:00,76.3,68.0,30.12,NNW,327,1.0,2.0,75,0.00,,,0.53,weatherlink.com 1.10,2013-07-02 18:13:00,
2013-07-02 14:28:00,76.4,64.0,30.12,NE,53,0.0,7.0,65,0.00,,,0.53,weatherlink.com 1.10,2013-07-02 18:28:00,
2013-07-02 14:43:00,77.1,66.0,30.12,WSW,246,0.0,2.0,68,0.00,,,0.53,weatherlink.com 1.10,2013-07-02 18:43:00,
2013-07-02 14:58:00,78.0,68.0,30.11,NNW,331,0.0,3.0,72,0.00,,,0.53,weatherlink.com 1.10,2013-07-02 18:58:00,
2013-07-02 15:13:00,77.7,63.0,30.11,ENE,67,0.0,4.0,61,0.00,,,0.53,weatherlink.com 1.10,2013-07-02 19:13:00,
2013-07-02 15:28:00,77.5,63.0,30.11,SE,129,0.0,5.0,62,0.00,,,0.53,weatherlink.com 1.10,2013-07-02 19:28:00,
2013-07-02 15:43:00,76.5,63.0,30.11,NW,324,2.0,6.0,64,0.00,,,0.53,weatherlink.com 1.10,2013-07-02 19:43:00,
2013-07-02 16:05:00,75.7,61.0,30.11,North,351,0.0,6.0,61,0.00,,,0.53,weatherlink.com 1.10,2013-07-02 20:05:00,
2013-07-02 16:14:00,75.6,64.0,30.11,ENE,69,0.0,6.0,67,0.00,,,0.53,weatherlink.com 1.10,2013-07-02 20:14:00,
2013-07-02 16:29:00,75.0,61.0,30.11,NNE,20,3.0,3.0,63,0.00,,,0.53,weatherlink.com 1.10,2013-07-02 20:29:00,
2013-07-02 16:44:00,74.9,66.0,30.11,SSE,160,1.0,3.0,73,0.00,,,0.53,weatherlink.com 1.10,2013-07-02 20:44:00,
2013-07-02 16:59:00,74.8,61.0,30.11,NNE,29,0.0,3.0,63,0.00,,,0.53,weatherlink.com 1.10,2013-07-02 20:59:00,
2013-07-02 17:14:00,75.0,61.0,30.11,SSE,150,2.0,3.0,62,0.00,,,0.53,weatherlink.com 1.10,2013-07-02 21:14:00,
2013-07-02 17:29:00,74.8,61.0,30.11,NNE,19,1.0,3.0,63,0.00,,,0.53,weatherlink.com 1.10,2013-07-02 21:29:00,
2013-07-02 17:44:00,74.7,62.0,30.11,NW,322,0.0,5.0,65,0.00,,,0.53,weatherlink.com 1.10,2013-07-02 21:44:00,
2013-07-02 17:59:00,74.1,62.0,30.11,WSW,250,0.0,3.0,65,0.00,,,0.53,weatherlink.com 1.10,2013-07-02 21:59:00,
2013-07-02 18:14:00,73.8,63.0,30.12,NNE,33,5.0,5.0,68,0.00,,,0.53,weatherlink.com 1.10,2013-07-02 22:14:00,
2013-07-02 18:29:00,72.8,64.0,30.12,WNW,298,1.0,2.0,73,0.00,,,0.53,weatherlink.com 1.10,2013-07-02 22:29:00,
2013-07-02 18:44:00,72.3,64.0,30.12,SSW,209,0.0,2.0,75,0.00,,,0.53,weatherlink.com 1.10,2013-07-02 22:44:00,
2013-07-02 18:59:00,72.0,63.0,30.13,ENE,70,1.0,4.0,74,0.00,,,0.53,weatherlink.com 1.10,2013-07-02 22:59:00,
2013-07-02 19:14:00,71.6,64.0,30.13,ESE,117,0.0,1.0,77,0.00,,,0.53,weatherlink.com 1.10,2013-07-02 23:14:00,
2013-07-02 19:29:00,70.9,64.0,30.14,SW,222,0.0,1.0,79,0.00,,,0.53,weatherlink.com 1.10,2013-07-02 23:29:00,
2013-07-02 19:44:00,70.3,62.0,30.14,WNW,284,0.0,2.0,76,0.00,,,0.53,weatherlink.com 1.10,2013-07-02 23:44:00,
2013-07-02 19:59:00,70.4,63.0,30.15,ENE,64,0.0,2.0,77,0.00,,,0.53,weatherlink.com 1.10,2013-07-02 23:59:00,
2013-07-02 20:14:00,70.0,64.0,30.16,NNW,340,0.0,1.0,80,0.00,,,0.53,weatherlink.com 1.10,2013-07-03 00:14:00,
2013-07-02 20:29:00,69.2,64.0,30.15,West,276,1.0,2.0,82,0.00,,,0.53,weatherlink.com 1.10,2013-07-03 00:29:00,
2013-07-02 20:44:00,68.9,64.0,30.16,West,273,0.0,2.0,84,0.00,,,0.53,weatherlink.com 1.10,2013-07-03 00:44:00,
2013-07-02 20:59:00,68.5,64.0,30.16,SE,138,0.0,2.0,85,0.00,,,0.53,weatherlink.com 1.10,2013-07-03 00:59:00,
2013-07-02 21:14:00,68.3,64.0,30.16,SE,138,0.0,1.0,86,0.00,,,0.53,weatherlink.com 1.10,2013-07-03 01:14:00,
2013-07-02 21:29:00,68.0,64.0,30.17,West,271,0.0,2.0,87,0.00,,,0.53,weatherlink.com 1.10,2013-07-03 01:29:00,
2013-07-02 21:44:00,68.0,64.0,30.17,North,356,0.0,2.0,87,0.00,,,0.53,weatherlink.com 1.10,2013-07-03 01:44:00,
2013-07-02 21:59:00,67.5,65.0,30.17,North,356,1.0,1.0,91,0.01,,,0.54,weatherlink.com 1.10,2013-07-03 01:59:00,
2013-07-02 22:14:00,66.6,65.0,30.18,North,357,0.0,1.0,93,0.02,,,0.55,weatherlink.com 1.10,2013-07-03 02:14:00,
2013-07-02 22:29:00,66.1,64.0,30.18,North,357,0.0,0.0,94,0.02,,,0.55,weatherlink.com 1.10,2013-07-03 02:29:00,
2013-07-02 22:59:00,65.6,64.0,30.20,WNW,295,0.0,2.0,95,0.01,,,0.55,weatherlink.com 1.10,2013-07-03 02:59:00,
2013-07-02 23:14:00,65.3,64.0,30.20,ESE,105,0.0,0.0,95,0.00,,,0.55,weatherlink.com 1.10,2013-07-03 03:14:00,
2013-07-02 23:29:00,65.0,64.0,30.21,SSW,199,0.0,1.0,95,0.00,,,0.55,weatherlink.com 1.10,2013-07-03 03:29:00,
2013-07-02 23:59:00,64.6,63.0,30.20,SSW,193,1.0,2.0,95,0.00,,,0.55,weatherlink.com 1.10,2013-07-03 03:59:00,